Regional Weather Roundup
Issued by NWS Charleston, SC

Current Version | Previous Version | Graphics & Text | Print | Product List | Glossary On
Versions: 1 2 3 4 5 6 7 8 9 10 11 12 13 14 15 16 17 18 19 20 21 22 23 24 25 26 27 28 29 30 31 32 33 34 35 36 37 38 39 40 41 42 43 44 45 46 47 48 49 50
000
ASUS42 KCHS 120626
RWRCHS

REGIONAL WEATHER ROUNDUP
NATIONAL WEATHER SERVICE CHARLESTON SC
100 AM EST TUE DEC 12 2017

NOTE: "FAIR" INDICATES FEW OR NO CLOUDS BELOW 12,000 FEET WITH NO
SIGNIFICANT WEATHER AND/OR OBSTRUCTIONS TO VISIBILITY.

NOT ALL STATIONS ARE QUALITY CONTROLLED. USE DATA WITH CAUTION...
ESPECIALLY DEWPOINT OBSERVATIONS.

SCZ027-030-031-034>040-042>050-120700-
...SOUTHEAST SOUTH CAROLINA...

CITY           SKY/WX    TMP DP  RH WIND       PRES   REMARKS
N CHARLESTON   CLEAR     45  39  79 SW9       29.98F
6HR MIN TEMP:  40; 6HR MAX TEMP:  47;

WATERFRONT PRK   N/A     51  42  71 VRB3      29.85F
JOHNS ISLAND   FAIR      50  41  71 SW7       29.99F
PINOPOLIS        N/A     48  41  76 SW9       29.91F
MONCKS CORNER  FAIR      48  36  61 SW7       29.96F
SUMMERVILLE    FAIR      37  36  93 CALM      29.98F
BEAUFORT MCAS  CLEAR     43  39  86 SW8       30.01F
6HR MIN TEMP:  43; 6HR MAX TEMP:  49;

BEAUFORT ARPT  FAIR      46  37  71 SW5       29.99F
HILTON HEAD IS CLEAR     48  39  71 SW8       30.02F
WALTERBORO     CLEAR     43  36  75 SW6       29.98F
ALLENDALE      FAIR      45  37  76 CALM      29.95F

...SOUTHERN MIDLANDS AND PEE DEE...

CITY           SKY/WX    TMP DP  RH WIND       PRES   REMARKS
GEORGETOWN     FAIR      43  41  93 SW8       29.98F
KINGSTREE      FAIR      41  36  81 CALM      29.94F
ORANGEBURG     CLEAR     40  34  79 SW7       29.95F WCI  35
6HR MIN TEMP:  39; 6HR MAX TEMP:  45;

BARNWELL         N/A     46  37  71 SW6       29.95F
AIKEN          FAIR      43  34  70 SW6       29.96F
MANNING        FAIR      48  28  46 MISG      29.94F
COLUMBIA       CLEAR     46  37  71 SW8       29.92F
6HR MIN TEMP:  39; 6HR MAX TEMP:  49;

SUMTER         CLEAR     46  35  67 S7        29.90F
6HR MIN TEMP:  40; 6HR MAX TEMP:  46;

FLORENCE       CLEAR     40  35  83 S8        29.92F WCI  34
6HR MIN TEMP:  38; 6HR MAX TEMP:  43;

MYRTLE BEACH   CLEAR     47  38  71 SW7       29.98F
N MYRTLE BEACH CLEAR     48  40  73 SW9       29.96F
6HR MIN TEMP:  37; 6HR MAX TEMP:  49;


$$

GAZ063-065-086>088-099>101-113>116-118-119-134>141-150-120700-
...SOUTHEAST GEORGIA...

CITY           SKY/WX    TMP DP  RH WIND       PRES   REMARKS
SAVANNAH ARPT  CLEAR     47  37  68 SW9       30.03F
6HR MIN TEMP:  44; 6HR MAX TEMP:  49;

HUNTER AAF     CLEAR     46  37  71 SW7       30.00F
6HR MIN TEMP:  46; 6HR MAX TEMP:  51;

FORT STEWART   CLEAR     44  37  75 SW6       30.01F
6HR MIN TEMP:  41; 6HR MAX TEMP:  47;

STATESBORO     CLEAR     47  35  61 SW6       29.98F
SYLVANIA       CLEAR     47  39  73 SW5       29.99F
CLAXTON        FAIR      45  39  82 CALM      30.01F

...CSRA...CENTRAL AND FAR SOUTHEAST GEORGIA...

CITY           SKY/WX    TMP DP  RH WIND       PRES   REMARKS
THOMSON        CLEAR     44  36  72 NW7       29.99S
AUGUSTA-BUSH   CLEAR     46  36  68 SW8       29.95F
6HR MIN TEMP:  39; 6HR MAX TEMP:  48;

AUGUSTA-DANIEL CLEAR     50  36  58 SW7       29.94F
SWAINSBORO     FAIR      46  36  66 NW5       29.98F
VIDALIA        CLEAR     46  39  76 SW7       30.00F
EASTMAN        FAIR      45  31  57 SW3       30.02F
HAZLEHURST     FAIR      49  36  61 SW6       30.00F
ALMA           CLEAR     42  37  82 S3        30.04F
6HR MIN TEMP:  41; 6HR MAX TEMP:  47;

WAYCROSS       CLEAR     43  38  82 SW5       30.05F
JESUP          NOT AVBL
BAXLEY         FAIR      41  37  87 CALM      30.01F
BRUNSWICK      CLEAR     45  37  76 SW8       30.06S
SAINT SIMONS   CLEAR     48  40  73 SW10      30.05F
6HR MIN TEMP:  48; 6HR MAX TEMP:  54;


$$

SCZ027-028-034-036>038-045-046-048>050-GAZ119-141-120700-
...LAKE AND SUPPLEMENTAL COASTAL OBSERVATIONS...

STATION/POSITION TIME  TEMP    WIND        PRES    WAVE   SWELL
                       AIR SEA DIR/SP/G            HT/PER HT/PER/DIR
                 (UTC) (F)     (DEG/KT/KT) (MB)    (FT/S) (FT/S/D)
WINYAH BAY       0545   47     240/  4     1015.0F
LAKE MURRAY      0550   53     240/ 11/ 16 1012.2F
ACE BASIN NERRS  0545   47        CALM     1016.0S
FORT PULASKI     0600   48 55  220/  5/  7 1016.8
SAPELO ISLAND    NOT AVBL

$$

ANZ835-935-AMZ111-154-330-350-352-354-370-450-454-472-120700-
...C-MAN AND BUOY OBSERVATIONS...

STATION/POSITION TIME  TEMP    WIND        PRES    WAVE   SWELL
                       AIR SEA DIR/SP/G            HT/PER HT/PER/DIR
                 (UTC) (F)     (DEG/KT/KT) (MB)    (FT/S) (FT/S/D)
BUOY 41004       0610      74  250/ 19/ 25 1015.0
BUOY 41008       0550   56 61  230/ 19/ 21 1016.8F   3/ 4   2/ 60/ 8
FOLLY BEACH CMAN 0600   53     230/  9/ 13 1016.0F
CAPERS NEARSHORE 0608   53 57  250/ 17/ 23 1014.9F
FRIPP NEARSHORE  0608   52 56  220/ 21/ 29 1015.4F


STATION/POSITION TIME  TEMP    WIND        PRES    WAVE   SWELL
                       AIR SEA DIR/SP/G            HT/PER HT/PER/DIR
                 (UTC) (F)     (DEG/KT/KT) (MB)    (FT/S) (FT/S/D)
5E ST. MARYS GA  0530      60                N/A     2/ 3
FRYING PAN BUOY  0610   60 61  260/ 17/ 21 1014.4
BUOY 41025       0610   61 76  260/ 10/ 16 1013.0
CAPE LOOKOUT NC  0600          250/ 10/ 13 1014.2F
BUOY 41002       0550   68 76  230/ 14/ 19 1016.2F   4/ 6   2/ 80/ 8
BUOY 41010       NOT AVBL
ST AUGUSTINE FL  0600   47 62  240/  8/ 11 1019.0F


$$



USA.gov is the U.S. government's official web portal to all federal, state and local government web resources and services.